Weather History for Houlton, ME

Change the Weather History Date:

Saturday, March 16, 2013

  Actual Average Record
Temperature  
Mean Temperature 20 °F 25 °F  
Max Temperature 31 °F 36 °F 56 °F (2010)
Min Temperature 8 °F 15 °F -12 °F (1956)
Degree Days  
Heating Degree Days 45 40  
Month to date heating degree days 518 680  
Since 1 July heating degree days 6623 7253  
Cooling Degree Days 0 0  
Month to date cooling degree days 0 0  
Year to date cooling degree days 0 0  
Moisture  
Dew Point 5 °F    
Average Humidity 58    
Maximum Humidity 83    
Minimum Humidity 33    
Precipitation  
Precipitation 0.00 in 0.08 in 0.75 in (1953)
Month to date precipitation 0.98 1.31  
Year to date precipitation 3.38 6.17  
Sea Level Pressure  
Sea Level Pressure 29.71 in    
Wind  
Wind Speed 5 mph (NW)    
Max Wind Speed 16 mph    
Max Gust Speed 24 mph    
Visibility 10 miles    
Events      
T = Trace of Precipitation, MM = Missing Value Source: NWS Daily Summary

Daily Weather History Graph

Daily Weather History Graph

Search for Another Location

Airport:

Trip Planner

Search our weather history database for the weather conditions in past years. The results will help you decide how hot, cold, wet, or windy it might be!

Date:

Astronomy

Mar. 16, 2013 Rise Set
Actual Time 6:41 AM EDT 6:38 PM EDT
Civil Twilight 6:11 AM EDT 7:08 PM EDT
Nautical Twilight 5:36 AM EDT 7:43 PM EDT
Astronomical Twilight 5:01 AM EDT 8:19 PM EDT
Moon 8:52 AM EDT (3/16) No Moon Set
Length of Visible Light 12h 56m
Length of Day
11h 57m
Waxing Crescent, 23% of the Moon is Illuminated
Mar 16
Waxing Crescent
Mar 19
First Quarter
Mar 27
Full
Apr 3
Last Quarter
Apr 10
New

Hourly Weather History & Observations

Time (EDT) Temp. Windchill Dew Point Humidity Pressure Visibility Wind Dir Wind Speed Gust Speed Precip Events Conditions
12:53 AM 14.0 °F - 8.1 °F 77% 29.62 in 10.0 mi Calm Calm - N/A   Clear
1:53 AM 10.9 °F - 7.0 °F 84% 29.62 in 10.0 mi Calm Calm - N/A   Clear
2:53 AM 10.0 °F - 6.1 °F 84% 29.63 in 10.0 mi Calm Calm - N/A   Clear
3:53 AM 10.9 °F - 6.1 °F 81% 29.64 in 10.0 mi Calm Calm - N/A   Clear
4:53 AM 12.0 °F - 6.1 °F 77% 29.65 in 10.0 mi Calm Calm - N/A   Clear
5:53 AM 10.9 °F - 5.0 °F 77% 29.68 in 10.0 mi Calm Calm - N/A   Clear
6:53 AM 9.0 °F - 3.9 °F 80% 29.70 in 10.0 mi Calm Calm - N/A   Clear
7:53 AM 17.1 °F 8.7 °F 8.1 °F 68% 29.70 in 10.0 mi Variable 5.8 mph - N/A   Clear
8:53 AM 19.9 °F 9.3 °F 7.0 °F 57% 29.71 in 10.0 mi NNW 9.2 mph 18.4 mph N/A   Clear
9:53 AM 23.0 °F 10.6 °F 5.0 °F 46% 29.71 in 10.0 mi NW 13.8 mph - N/A   Clear
10:53 AM 25.0 °F 14.8 °F 3.9 °F 41% 29.70 in 10.0 mi NNW 10.4 mph - N/A   Partly Cloudy
11:53 AM 26.1 °F 16.2 °F 5.0 °F 41% 29.70 in 10.0 mi West 10.4 mph 19.6 mph N/A   Scattered Clouds
12:53 PM 27.0 °F 20.5 °F 6.1 °F 41% 29.70 in 10.0 mi Variable 5.8 mph 19.6 mph N/A   Partly Cloudy
1:53 PM 28.9 °F 20.4 °F 5.0 °F 36% 29.70 in 10.0 mi WNW 9.2 mph 16.1 mph N/A   Clear
2:53 PM 28.9 °F 21.1 °F 5.0 °F 36% 29.70 in 10.0 mi WNW 8.1 mph 18.4 mph N/A   Partly Cloudy
3:53 PM 28.9 °F 18.6 °F 3.0 °F 33% 29.70 in 10.0 mi West 12.7 mph 18.4 mph N/A   Clear
4:53 PM 28.0 °F 20.8 °F 3.9 °F 36% 29.70 in 10.0 mi WNW 6.9 mph - N/A   Clear
5:53 PM 28.0 °F 20.0 °F 3.9 °F 36% 29.72 in 10.0 mi West 8.1 mph - N/A   Mostly Cloudy
6:53 PM 26.1 °F 20.5 °F 1.9 °F 35% 29.73 in 10.0 mi WNW 4.6 mph - N/A   Clear
7:53 PM 25.0 °F 19.3 °F 3.0 °F 39% 29.75 in 10.0 mi WNW 4.6 mph - N/A   Mostly Cloudy
8:53 PM 23.0 °F 18.4 °F 1.9 °F 40% 29.78 in 10.0 mi NW 3.5 mph - N/A   Clear
9:53 PM 21.0 °F 14.6 °F 1.9 °F 44% 29.80 in 10.0 mi North 4.6 mph - N/A   Clear
10:53 PM 19.9 °F 10.1 °F 1.9 °F 46% 29.82 in 10.0 mi North 8.1 mph - N/A   Clear
11:53 PM 17.1 °F - 1.9 °F 52% 29.84 in 10.0 mi Calm Calm - N/A   Clear